Time,TemperatureF,DewpointF,PressureIn,WindDirection,WindDirectionDegrees,WindSpeedMPH,WindSpeedGustMPH,Humidity,HourlyPrecipIn,Conditions,Clouds,dailyrainin,SolarRadiationWatts/m^2,SoftwareType,DateUTC
2013-08-03 00:02:00,84.0,65.0,-100.00,SSE,158,11.0,17.0,53,0.00,,,0.00,0.000000,,2013-08-03 05:02:00,
2013-08-03 00:12:00,84.0,65.0,-100.00,SSE,158,11.0,17.0,53,0.00,,,0.00,0.000000,,2013-08-03 05:12:00,
2013-08-03 00:22:00,84.0,65.0,-100.00,SSE,158,11.0,17.0,53,0.00,,,0.00,0.000000,,2013-08-03 05:22:00,
2013-08-03 00:32:00,84.0,65.0,-100.00,SSE,158,11.0,17.0,53,0.00,,,0.00,0.000000,,2013-08-03 05:32:00,
2013-08-03 01:02:00,82.0,67.0,-100.00,South,174,10.0,19.0,60,0.00,,,0.00,0.000000,,2013-08-03 06:02:00,
2013-08-03 01:12:00,82.0,67.0,-100.00,South,174,10.0,19.0,60,0.00,,,0.00,0.000000,,2013-08-03 06:12:00,
2013-08-03 01:22:00,82.0,67.0,-100.00,South,174,10.0,19.0,60,0.00,,,0.00,0.000000,,2013-08-03 06:22:00,
2013-08-03 01:32:00,82.0,67.0,-100.00,South,174,10.0,19.0,60,0.00,,,0.00,0.000000,,2013-08-03 06:32:00,
2013-08-03 02:02:00,80.0,67.0,-100.00,SSE,168,10.0,18.0,64,0.00,,,0.00,0.000000,,2013-08-03 07:02:00,
2013-08-03 02:12:00,80.0,67.0,-100.00,SSE,168,10.0,18.0,64,0.00,,,0.00,0.000000,,2013-08-03 07:12:00,
2013-08-03 02:22:00,80.0,67.0,-100.00,SSE,168,10.0,18.0,64,0.00,,,0.00,0.000000,,2013-08-03 07:22:00,
2013-08-03 02:32:00,80.0,67.0,-100.00,SSE,168,10.0,18.0,64,0.00,,,0.00,0.000000,,2013-08-03 07:32:00,
2013-08-03 03:02:00,78.0,68.0,-100.00,South,179,10.0,16.0,71,0.00,,,0.00,0.000000,,2013-08-03 08:02:00,
2013-08-03 03:12:00,78.0,68.0,-100.00,South,179,10.0,16.0,71,0.00,,,0.00,0.000000,,2013-08-03 08:12:00,
2013-08-03 03:22:00,78.0,68.0,-100.00,South,179,10.0,16.0,71,0.00,,,0.00,0.000000,,2013-08-03 08:22:00,
2013-08-03 03:32:00,78.0,68.0,-100.00,South,179,10.0,16.0,71,0.00,,,0.00,0.000000,,2013-08-03 08:32:00,
2013-08-03 04:02:00,77.0,69.0,-100.00,South,178,10.0,15.0,77,0.00,,,0.00,0.000000,,2013-08-03 09:02:00,
2013-08-03 04:12:00,77.0,69.0,-100.00,South,178,10.0,15.0,77,0.00,,,0.00,0.000000,,2013-08-03 09:12:00,
2013-08-03 04:22:00,77.0,69.0,-100.00,South,178,10.0,15.0,77,0.00,,,0.00,0.000000,,2013-08-03 09:22:00,
2013-08-03 04:32:00,77.0,69.0,-100.00,South,178,10.0,15.0,77,0.00,,,0.00,0.000000,,2013-08-03 09:32:00,
2013-08-03 05:02:00,76.0,70.0,-100.00,South,181,10.0,14.0,82,0.00,,,0.00,0.000000,,2013-08-03 10:02:00,
2013-08-03 05:12:00,76.0,70.0,-100.00,South,181,10.0,14.0,82,0.00,,,0.00,0.000000,,2013-08-03 10:12:00,
2013-08-03 05:22:00,76.0,70.0,-100.00,South,181,10.0,14.0,82,0.00,,,0.00,0.000000,,2013-08-03 10:22:00,
2013-08-03 05:32:00,76.0,70.0,-100.00,South,181,10.0,14.0,82,0.00,,,0.00,0.000000,,2013-08-03 10:32:00,
2013-08-03 06:02:00,75.0,71.0,-100.00,South,186,10.0,15.0,86,0.00,,,0.00,0.000000,,2013-08-03 11:02:00,
2013-08-03 06:12:00,75.0,71.0,-100.00,South,186,10.0,15.0,86,0.00,,,0.00,0.000000,,2013-08-03 11:12:00,
2013-08-03 06:22:00,75.0,71.0,-100.00,South,186,10.0,15.0,86,0.00,,,0.00,0.000000,,2013-08-03 11:22:00,
2013-08-03 06:32:00,75.0,71.0,-100.00,South,186,10.0,15.0,86,0.00,,,0.00,0.000000,,2013-08-03 11:32:00,
2013-08-03 07:02:00,74.0,71.0,-100.00,SSW,195,8.0,15.0,89,0.00,,,0.00,0.000000,,2013-08-03 12:02:00,
2013-08-03 07:12:00,74.0,71.0,-100.00,SSW,195,8.0,15.0,89,0.00,,,0.00,0.000000,,2013-08-03 12:12:00,
2013-08-03 07:22:00,74.0,71.0,-100.00,SSW,195,8.0,15.0,89,0.00,,,0.00,0.000000,,2013-08-03 12:22:00,
2013-08-03 07:33:00,74.0,71.0,-100.00,SSW,195,8.0,15.0,89,0.00,,,0.00,0.000000,,2013-08-03 12:33:00,
2013-08-03 08:02:00,75.0,71.0,-100.00,SSW,199,9.0,13.0,87,0.00,,,0.00,23.000000,,2013-08-03 13:02:00,
2013-08-03 08:12:00,75.0,71.0,-100.00,SSW,199,9.0,13.0,87,0.00,,,0.00,23.000000,,2013-08-03 13:12:00,
2013-08-03 08:22:00,75.0,71.0,-100.00,SSW,199,9.0,13.0,87,0.00,,,0.00,23.000000,,2013-08-03 13:22:00,
2013-08-03 08:33:00,75.0,71.0,-100.00,SSW,199,9.0,13.0,87,0.00,,,0.00,23.000000,,2013-08-03 13:33:00,
2013-08-03 09:02:00,78.0,72.0,-100.00,SSW,199,11.0,17.0,81,0.00,,,0.00,171.000000,,2013-08-03 14:02:00,
2013-08-03 09:12:00,78.0,72.0,-100.00,SSW,199,11.0,17.0,81,0.00,,,0.00,171.000000,,2013-08-03 14:12:00,
2013-08-03 09:22:00,78.0,72.0,-100.00,SSW,199,11.0,17.0,81,0.00,,,0.00,171.000000,,2013-08-03 14:22:00,
2013-08-03 09:33:00,78.0,72.0,-100.00,SSW,199,11.0,17.0,81,0.00,,,0.00,171.000000,,2013-08-03 14:33:00,
2013-08-03 10:02:00,81.0,71.0,-100.00,South,184,11.0,18.0,72,0.00,,,0.00,364.000000,,2013-08-03 15:02:00,
2013-08-03 10:12:00,81.0,71.0,-100.00,South,184,11.0,18.0,72,0.00,,,0.00,364.000000,,2013-08-03 15:12:00,
2013-08-03 10:23:00,81.0,71.0,-100.00,South,184,11.0,18.0,72,0.00,,,0.00,364.000000,,2013-08-03 15:23:00,
2013-08-03 10:32:00,81.0,71.0,-100.00,South,184,11.0,18.0,72,0.00,,,0.00,364.000000,,2013-08-03 15:32:00,
2013-08-03 11:02:00,85.0,69.0,-100.00,SSW,201,12.0,19.0,59,0.00,,,0.00,553.000000,,2013-08-03 16:02:00,
2013-08-03 11:12:00,85.0,69.0,-100.00,SSW,201,12.0,19.0,59,0.00,,,0.00,553.000000,,2013-08-03 16:12:00,
2013-08-03 11:23:00,85.0,69.0,-100.00,SSW,201,12.0,19.0,59,0.00,,,0.00,553.000000,,2013-08-03 16:23:00,
2013-08-03 11:33:00,85.0,69.0,-100.00,SSW,201,12.0,19.0,59,0.00,,,0.00,553.000000,,2013-08-03 16:33:00,
2013-08-03 12:03:00,87.0,68.0,-100.00,SSW,207,10.0,17.0,53,0.00,,,0.00,718.000000,,2013-08-03 17:03:00,
2013-08-03 12:12:00,87.0,68.0,-100.00,SSW,207,10.0,17.0,53,0.00,,,0.00,718.000000,,2013-08-03 17:12:00,
2013-08-03 12:22:00,87.0,68.0,-100.00,SSW,207,10.0,17.0,53,0.00,,,0.00,718.000000,,2013-08-03 17:22:00,
2013-08-03 12:32:00,87.0,68.0,-100.00,SSW,207,10.0,17.0,53,0.00,,,0.00,718.000000,,2013-08-03 17:32:00,
2013-08-03 13:02:00,90.0,67.0,-100.00,South,180,10.0,17.0,47,0.00,,,0.00,823.000000,,2013-08-03 18:02:00,
2013-08-03 13:12:00,90.0,67.0,-100.00,South,180,10.0,17.0,47,0.00,,,0.00,823.000000,,2013-08-03 18:12:00,
2013-08-03 13:22:00,90.0,67.0,-100.00,South,180,10.0,17.0,47,0.00,,,0.00,823.000000,,2013-08-03 18:22:00,
2013-08-03 13:32:00,90.0,67.0,-100.00,South,180,10.0,17.0,47,0.00,,,0.00,823.000000,,2013-08-03 18:32:00,
2013-08-03 14:02:00,92.0,66.0,-100.00,SSE,148,10.0,17.0,42,0.00,,,0.00,887.000000,,2013-08-03 19:02:00,
2013-08-03 14:12:00,92.0,66.0,-100.00,SSE,148,10.0,17.0,42,0.00,,,0.00,887.000000,,2013-08-03 19:12:00,
2013-08-03 14:22:00,92.0,66.0,-100.00,SSE,148,10.0,17.0,42,0.00,,,0.00,887.000000,,2013-08-03 19:22:00,
2013-08-03 14:32:00,92.0,66.0,-100.00,SSE,148,10.0,17.0,42,0.00,,,0.00,887.000000,,2013-08-03 19:32:00,
2013-08-03 15:02:00,94.0,64.0,-100.00,SSE,160,9.0,18.0,37,0.00,,,0.00,884.000000,,2013-08-03 20:02:00,
2013-08-03 15:12:00,94.0,64.0,-100.00,SSE,160,9.0,18.0,37,0.00,,,0.00,884.000000,,2013-08-03 20:12:00,
2013-08-03 15:22:00,94.0,64.0,-100.00,SSE,160,9.0,18.0,37,0.00,,,0.00,884.000000,,2013-08-03 20:22:00,
2013-08-03 15:32:00,94.0,64.0,-100.00,SSE,160,9.0,18.0,37,0.00,,,0.00,884.000000,,2013-08-03 20:32:00,
2013-08-03 16:02:00,95.0,62.0,-100.00,South,172,10.0,18.0,34,0.00,,,0.00,842.000000,,2013-08-03 21:02:00,
2013-08-03 16:12:00,95.0,62.0,-100.00,South,172,10.0,18.0,34,0.00,,,0.00,842.000000,,2013-08-03 21:12:00,
2013-08-03 16:22:00,95.0,62.0,-100.00,South,172,10.0,18.0,34,0.00,,,0.00,842.000000,,2013-08-03 21:22:00,
2013-08-03 16:32:00,95.0,62.0,-100.00,South,172,10.0,18.0,34,0.00,,,0.00,842.000000,,2013-08-03 21:32:00,
2013-08-03 17:02:00,96.0,63.0,-100.00,SE,137,8.0,20.0,34,0.00,,,0.00,737.000000,,2013-08-03 22:02:00,
2013-08-03 17:12:00,96.0,63.0,-100.00,SE,137,8.0,20.0,34,0.00,,,0.00,737.000000,,2013-08-03 22:12:00,
2013-08-03 17:22:00,96.0,63.0,-100.00,SE,137,8.0,20.0,34,0.00,,,0.00,737.000000,,2013-08-03 22:22:00,
2013-08-03 17:33:00,96.0,63.0,-100.00,SE,137,8.0,20.0,34,0.00,,,0.00,737.000000,,2013-08-03 22:33:00,
2013-08-03 18:02:00,95.0,60.0,-100.00,SE,142,9.0,17.0,32,0.00,,,0.00,568.000000,,2013-08-03 23:02:00,
2013-08-03 18:12:00,95.0,60.0,-100.00,SE,142,9.0,17.0,32,0.00,,,0.00,568.000000,,2013-08-03 23:12:00,
2013-08-03 18:22:00,95.0,60.0,-100.00,SE,142,9.0,17.0,32,0.00,,,0.00,568.000000,,2013-08-03 23:22:00,
2013-08-03 18:32:00,95.0,60.0,-100.00,SE,142,9.0,17.0,32,0.00,,,0.00,568.000000,,2013-08-03 23:32:00,
2013-08-03 19:02:00,95.0,62.0,-100.00,SSE,152,8.0,15.0,34,0.00,,,0.00,393.000000,,2013-08-04 00:02:00,
2013-08-03 19:12:00,95.0,62.0,-100.00,SSE,152,8.0,15.0,34,0.00,,,0.00,393.000000,,2013-08-04 00:12:00,
2013-08-03 19:22:00,95.0,62.0,-100.00,SSE,152,8.0,15.0,34,0.00,,,0.00,393.000000,,2013-08-04 00:22:00,
2013-08-03 19:32:00,95.0,62.0,-100.00,SSE,152,8.0,15.0,34,0.00,,,0.00,393.000000,,2013-08-04 00:32:00,
2013-08-03 20:02:00,93.0,60.0,-100.00,SSE,156,7.0,14.0,33,0.00,,,0.00,206.000000,,2013-08-04 01:02:00,
2013-08-03 20:12:00,93.0,60.0,-100.00,SSE,156,7.0,14.0,33,0.00,,,0.00,206.000000,,2013-08-04 01:12:00,
2013-08-03 20:22:00,93.0,60.0,-100.00,SSE,156,7.0,14.0,33,0.00,,,0.00,206.000000,,2013-08-04 01:22:00,
2013-08-03 20:32:00,93.0,60.0,-100.00,SSE,156,7.0,14.0,33,0.00,,,0.00,206.000000,,2013-08-04 01:32:00,
2013-08-03 21:02:00,89.0,62.0,-100.00,SSE,161,4.0,12.0,41,0.00,,,0.00,37.000000,,2013-08-04 02:02:00,
2013-08-03 21:12:00,89.0,62.0,-100.00,SSE,161,4.0,12.0,41,0.00,,,0.00,37.000000,,2013-08-04 02:12:00,
2013-08-03 21:22:00,89.0,62.0,-100.00,SSE,161,4.0,12.0,41,0.00,,,0.00,37.000000,,2013-08-04 02:22:00,
2013-08-03 21:32:00,89.0,62.0,-100.00,SSE,161,4.0,12.0,41,0.00,,,0.00,37.000000,,2013-08-04 02:32:00,
2013-08-03 22:02:00,87.0,64.0,-100.00,SE,131,2.0,5.0,46,0.00,,,0.00,0.000000,,2013-08-04 03:02:00,
2013-08-03 22:12:00,87.0,64.0,-100.00,SE,131,2.0,5.0,46,0.00,,,0.00,0.000000,,2013-08-04 03:12:00,
2013-08-03 22:22:00,87.0,64.0,-100.00,SE,131,2.0,5.0,46,0.00,,,0.00,0.000000,,2013-08-04 03:22:00,
2013-08-03 22:32:00,87.0,64.0,-100.00,SE,131,2.0,5.0,46,0.00,,,0.00,0.000000,,2013-08-04 03:32:00,
2013-08-03 23:03:00,86.0,63.0,-100.00,SSE,150,4.0,9.0,47,0.00,,,0.00,0.000000,,2013-08-04 04:03:00,
2013-08-03 23:12:00,86.0,63.0,-100.00,SSE,150,4.0,9.0,47,0.00,,,0.00,0.000000,,2013-08-04 04:12:00,
2013-08-03 23:22:00,86.0,63.0,-100.00,SSE,150,4.0,9.0,47,0.00,,,0.00,0.000000,,2013-08-04 04:22:00,
2013-08-03 23:32:00,86.0,63.0,-100.00,SSE,150,4.0,9.0,47,0.00,,,0.00,0.000000,,2013-08-04 04:32:00,